Location: Wingo
(38.2091°N, 122.4266°W)
Time: 12:51:43
(UTC+00:00)

Daily predictions for brighter satellites

Satellite Brightness Start Highest point End
(mag) Time Altitude Azimuth Time Altitude Azimuth Time Altitude Azimuth
Cosmos 2322 Rocket 3.8 12:08:33 31° ESE 12:08:38 31° ESE 12:13:34 10° NE
Cosmos 2263 Rocket 3.6 12:11:20 33° ENE 12:11:20 33° ENE 12:16:03 10° SE
ATLAS 3B R/B 3.8 12:20:53 32° NNE 12:22:52 38° NE 12:29:15 10° ESE
NOSS 3-2 (C) 4.1 12:29:59 65° NNW 12:31:21 80° ENE 12:39:53 10° SE
CENTAUR R/B 3.3 12:36:48 42° NNW 12:40:05 74° NE 12:48:51 10° SE
NOSS 3-4 (A) 4.1 12:43:04 44° N 12:43:04 44° N 12:47:25 10° NNE
NOSS 3-4 (C) 4.0 12:43:08 44° N 12:43:08 44° N 12:47:30 10° NNE
NOSS 3-2 (A) 4.1 12:48:34 59° SW 12:48:34 59° SW 12:56:38 10° SSE
SL-16 R/B 2.2 12:52:52 77° NNE 12:52:52 77° NNE 12:58:07 10° NNE
Cosmos 2360 Rocket 3.6 12:47:20 10° S 12:52:27 36° ESE 12:57:35 10° NE
Timation 1 Rocket 4.3 12:53:59 67° N 12:54:51 84° ENE 13:00:51 10° SSE
Cosmos 1980 Rocket 4.4 13:03:06 12° N 13:03:06 12° N 13:03:36 10° N
Cosmos 2341 Rocket 3.9 12:52:59 10° N 12:59:15 89° E 13:05:27 10° S
CZ-3 R/B 3.6 12:53:02 34° WSW 13:02:57 54° SSW 13:10:55 10° ESE
STARLINK 1043 4.3 13:05:25 50° ENE 13:05:25 50° ENE 13:08:35 10° NE
Gbstr 26 Del rocket 4.5 13:04:23 48° NW 13:05:00 49° NNW 13:12:33 10° NE
Orbus 7S? 4.2 13:07:26 46° NNE 13:08:00 49° NE 13:14:37 10° SE
STARLINK 1065 4.1 13:10:11 58° ENE 13:10:11 58° ENE 13:13:34 10° NE
Cosmos 1371 Rocket 4.5 13:07:15 23° N 13:10:34 61° ENE 13:15:51 10° SSE
Meteor 2-10 4.2 13:13:43 55° NW 13:13:43 55° NW 13:18:05 10° N
STARLINK 1063 3.8 13:14:57 65° NE 13:14:57 65° NE 13:18:31 10° NE
Meteor 1-16 Rocket 4.2 13:13:03 35° SSW 13:15:30 63° W 13:21:16 10° N
ATLAS 2AS CENTAUR R/B 3.5 13:15:28 38° WNW 13:16:06 39° NW 13:23:30 10° NNE
RESURS DK-1 2.7 13:17:20 54° NNE 13:17:20 54° NNE 13:20:36 10° NNE
Cosmos 2112 Rocket 4.4 13:20:01 45° NW 13:20:01 45° NW 13:24:15 10° N
STARLINK 1064 3.6 13:19:43 71° NNE 13:19:43 71° NNE 13:23:29 10° NE
Cosmos 2218 Rocket 4.1 13:13:53 10° N 13:20:16 79° E 13:26:33 10° S
Cosmos 1953 Rocket 3.6 13:21:09 60° SSW 13:21:09 60° SSW 13:24:51 10° S
SKYMED 2 3.7 13:17:37 10° SSE 13:21:55 72° ENE 13:25:06 18° N
STARLINK 1041 3.5 13:24:30 71° NNW 13:24:30 71° NNW 13:28:28 10° NE
Cosmos 1703 3.3 13:25:01 65° SSW 13:25:01 65° SSW 13:28:24 10° S
Lacrosse 5 2.6 13:26:04 35° NNW 13:26:04 35° NNW 13:30:17 10° NNE
Cosmos 1959 Rocket 4.4 13:20:31 10° N 13:26:41 86° E 13:32:53 10° S
METEOR-M 4.2 13:21:24 10° NNE 13:26:46 78° ESE 13:32:06 10° S
STARLINK 1038 3.5 13:29:16 66° NW 13:29:17 66° NW 13:33:24 10° NE
STARLINK 1046 3.6 13:34:04 59° NW 13:34:16 60° NW 13:38:23 10° NE
STARLINK-60 3.0 13:35:59 78° S 13:35:59 78° S 13:39:11 10° SE
Cosmos 1624 Rocket 3.9 13:33:13 16° NNW 13:37:23 87° WSW 13:42:34 10° SSE
STARLINK 1039 3.7 13:38:51 52° WNW 13:39:16 55° NW 13:43:20 10° NE
STARLINK-29 3.7 13:41:28 38° NNW 13:42:26 52° NE 13:45:52 10° ESE
STARLINK 1045 3.8 13:43:39 45° WNW 13:44:16 50° NW 13:48:19 10° NE
STARLINK-52 3.9 13:44:14 34° NNW 13:45:22 49° NE 13:48:47 10° ESE
Cosmos 2366 rocket 3.9 13:39:35 10° NNW 13:45:55 70° W 13:52:11 10° S
PAYLOAD B 4.2 13:40:58 10° NNE 13:46:37 88° E 13:52:13 10° SSW
STARLINK 1050 4.0 13:48:40 39° WNW 13:49:26 44° NW 13:53:25 10° NE
Cosmos 1340 Rocket 4.0 13:46:03 10° SSE 13:49:44 42° E 13:53:27 10° NNE
Cosmos 2322 Rocket 2.8 13:50:29 27° W 13:52:33 34° WNW 13:57:43 10° N
Cosmos 2056 Rocket 3.5 13:48:37 11° NNW 13:53:43 64° WSW 13:59:01 10° S
STARLINK 1055 4.1 13:53:22 34° WNW 13:54:21 40° NW 13:58:17 10° NE
Lacrosse 5 rocket 4.0 13:51:56 10° N 13:54:23 14° NNE 13:56:48 10° ENE
Cosmos 2263 Rocket 2.9 13:53:06 27° WNW 13:54:45 32° WSW 13:59:42 10° SSW
Cosmos 2058 Rocket 3.8 13:55:24 10° SW 13:59:16 30° WNW 14:03:08 10° NNW
BREEZE M DEB (TANK) 4.1 13:58:33 19° NNW 13:59:18 21° N 14:03:06 10° NE
STARLINK 1022 4.2 13:58:08 30° WNW 13:59:20 37° NW 14:03:13 10° NE
Cosmos 1300 2.5 13:55:51 10° S 13:59:39 82° W 14:03:29 10° N
Okean O Rocket 1.5 13:59:25 10° N 14:03:52 78° WNW 14:08:14 10° SSW
STARLINK 1042 4.3 14:02:52 27° WNW 14:04:18 35° NNW 14:08:07 10° NE
Cosmos 1844 Rocket 3.2 13:59:54 10° NNW 14:05:30 62° ENE 14:11:05 10° SE
ADEOS Rocket 3.4 14:00:36 10° SSE 14:05:59 60° ENE 14:11:40 10° N
Meteor 1-11 4.4 14:01:12 10° NNW 14:06:35 47° W 14:11:59 10° SSW
CZ-4B DEB 4.3 14:01:58 10° N 14:07:20 52° WNW 14:12:39 10° SW
Cosmos 1437 2.7 14:05:07 10° N 14:08:09 73° E 14:11:10 10° SSE
STARLINK 1056 4.5 14:07:43 24° WNW 14:09:22 32° NNW 14:13:08 10° NNE
ALOS 2.8 14:05:39 10° N 14:09:51 34° WNW 14:14:03 10° SW
COSMO-SKYMED 1 3.3 14:06:13 10° SSW 14:10:04 31° W 14:13:44 11° NW
H-2A R/B 3.4 14:08:23 10° NNE 14:12:14 59° E 14:16:00 10° S
ATLAS 3B R/B 3.1 14:08:11 14° NW 14:13:34 42° WSW 14:20:04 10° S
Cosmos 2333 Rocket 2.7 14:12:24 10° S 14:18:06 68° ESE 14:23:50 10° NNE
Cosmos 2084 Rocket 3.4 14:15:19 10° SW 14:19:40 84° NW 14:24:05 10° NNE
Cosmos 2058 3.4 14:17:08 10° N 14:21:20 66° E 14:25:30 10° SSE
FENGYUN 3A 4.3 14:18:54 10° N 14:23:38 32° WNW 14:28:21 10° SW
USA 215 3.7 14:20:02 10° ESE 14:26:25 61° NE 14:32:51 10° NW
Envisat 4.2 14:25:03 10° NNE 14:29:57 47° E 14:34:49 10° S
CENTAUR R/B 4.1 14:24:02 11° WNW 14:30:22 27° WSW 14:37:16 10° SSW
Iridium 96 3.4 14:28:40 10° S 14:31:04 63° W 14:33:24 10° N
Cosmos 1452 Rocket 3.5 14:30:27 10° NNW 14:35:43 76° WSW 14:40:56 10° S
Cosmos 2360 Rocket 3.0 14:31:31 10° WSW 14:36:27 30° WNW 14:41:24 10° N
SL-16 R/B 3.8 14:34:50 11° WNW 14:37:19 14° NW 14:40:08 10° NNW
Helios 1A Rocket 3.3 14:33:50 10° N 14:37:44 41° WNW 14:41:38 10° SW
Cosmos 2219 Rocket 2.2 14:32:50 10° SSW 14:38:30 85° WNW 14:44:13 10° NNE
Cosmos 1892 3.0 14:36:18 10° N 14:40:06 69° E 14:43:51 10° SSE
Cosmos 2333 4.4 14:37:29 10° SW 14:43:06 53° WNW 14:48:47 10° NNE
Cosmos-2242 3.2 14:39:21 10° S 14:43:43 82° E 14:48:08 10° N
Cosmos 2322 4.0 14:38:52 10° SW 14:44:16 45° WNW 14:49:42 10° N
CZ-4 R/B 3.9 14:42:56 10° NE 14:46:34 28° E 14:50:08 10° SSE
Cosmos 1821 Rocket 4.1 14:46:27 10° NNW 14:52:21 51° W 14:58:11 10° SSW
Feng Yun 1-1 Rocket 4.4 14:46:45 10° NNE 14:52:40 84° WNW 14:58:25 10° SSW
